{"data":{"norad_id":67440,"epoch":"2026-09-20T22:01:28.701120Z","epoch_age_seconds":60530,"freshness":"FRESH","line1":"1 67440U 26007F   26263.91769330 -.00000097  00000+0  58039-4 0  9998","line2":"2 67440  50.0108 102.4783 0000396  32.3400 327.7497 13.29330544 33528","mean_motion":13.29330544,"eccentricity":3.96e-5,"inclination_deg":50.0108,"raan_deg":102.4783,"arg_perigee_deg":32.34,"mean_anomaly_deg":327.7497,"bstar":5.8039e-5,"rev_number":3352,"period_min":108.32520222299,"perigee_km":1148.9913319086,"apogee_km":1149.5875040809,"semimajor_km":7527.4264179948,"source":"CELESTRAK","updated_at":"2026-09-21T09:00:16.634037Z"}}